[[{"header":{"parameterUnit":"m.s-1","parameterCategory":1,"la1":30.2991,"la2":30.254,"lo1":-89.0895,"lo2":-89.0444,"dy":0.0017,"dx":0.0017,"nx":28,"ny":28,"refTime":"2024-12-11T09:00:00:Z","depth":0,"parameterNumber":2,"parameterNumberName":"U-component_of_WINDS"},"data":[0,0,0,0,0,0,0,0,0,0,0,0,0,0,0,0,0,0,0,0,0,0,0,0,0,0,0,0,0,0,0,0,0,0,0,0,0,0,0,0,0,0,0,0,0,0,0,0,0,0,0,0,0,0,0,0,0,0,-3.0281,-3.028,0,-3.0247,-3.0246,-3.0246,-3.014,-3.0138,-3.0136,-3.0133,-3.0102,-3.0103,-3.0104,0,0,0,0,0,0,0,0,0,0,0,0,0,-3.0258,-3.0259,-3.0281,-3.028,-3.028,-3.0247,-3.0246,-3.0246,-3.0141,-3.0138,-3.0135,-3.0132,-3.0101,-3.0103,-3.0104,0,0,0,0,0,0,0,0,0,0,0,0,0,-3.025,-3.0259,-3.0281,-3.0223,-3.0218,-3.0247,-3.0246,-3.0246,-3.0141,-3.0138,-3.0134,-3.0131,-3.0101,-3.0103,-3.0105,-3.0187,0,0,-3.0111,-3.0112,0,0,0,0,0,0,0,0,-3.0251,-3.0251,-3.0232,-3.0227,-3.0221,-3.0194,-3.0226,-3.0226,-3.0142,-3.0171,-3.0133,-3.0129,-3.0136,-3.0134,-3.0136,-3.0186,-3.0184,-3.0111,-3.0112,-3.0113,-3.0114,0,0,0,0,0,0,0,-3.0252,-3.0252,-3.0267,-3.0232,-3.0225,-3.02,-3.0195,-3.0226,-3.0173,-3.0168,-3.016,-3.0157,-3.0132,-3.0134,-3.0134,-3.0184,-3.0111,-3.0113,-3.0114,-3.0115,-3.0301,-3.0305,0,0,0,0,0,0,-3.026,-3.0253,-3.0268,-3.0266,-3.0228,-3.0204,-3.0198,-3.0206,-3.0173,-3.0164,-3.016,-3.0152,-3.0132,-3.0132,-3.0133,-3.0229,-3.0113,-3.0115,-3.0116,-3.0298,-3.0302,-3.0306,0,0,0,0,0,0,-3.026,-3.0262,-3.027,-3.0258,-3.0257,-3.0208,-3.0218,-3.0208,-3.021,-3.0167,-3.0157,-3.0172,-3.013,-3.013,-3.0175,-3.0226,-3.0116,-3.0118,-3.0293,-3.0299,-3.0304,-3.042,0,0,0,0,0,0,-3.026,-3.0263,-3.0293,-3.0259,-3.0258,-3.0312,-3.0221,-3.0209,-3.0213,-3.0203,-3.0175,-3.0168,-3.0127,-3.0172,-3.0177,-3.0227,-3.0119,-3.0289,-3.0296,-3.0303,-3.0412,-3.0429,-3.0444,0,0,0,0,0,-3.0259,-3.0327,-3.0295,-3.0297,-3.0294,-3.0315,-3.0314,-3.0265,-3.0218,-3.0248,-3.0221,-3.0168,-3.0219,-3.0178,-3.0182,-3.0233,-3.0285,-3.0294,-3.0302,-3.0405,-3.0426,-3.0444,0,0,0,0,0,0,-3.037,-3.0322,-3.0286,-3.0345,-3.0334,-3.0297,-3.0334,-3.0289,-3.0293,-3.0283,-3.0222,-3.0217,-3.0271,-3.0256,-3.0211,-3.0312,-3.0244,-3.0253,-3.032,-3.034,-3.0356,-3.0359,-3.0121,0,0,0,0,0,-3.0401,-3.042,-3.0378,-3.0434,-3.0431,-3.0384,-3.039,-3.0353,-3.0341,-3.0336,-3.0312,-3.0303,-3.0317,-3.0327,-3.0337,-3.0408,-3.0402,-3.0446,-3.0462,-3.0476,-3.0486,-3.0524,-3.0543,-3.0334,-3.0334,-3.0334,0,0,-3.0465,-3.0442,-3.0458,-3.0456,-3.0443,-3.0466,-3.0381,-3.0408,-3.0425,-3.0341,-3.0382,-3.0364,-3.0349,-3.0408,-3.0433,-3.0397,-3.0542,-3.0486,-3.0498,-3.05,-3.0535,-3.0554,-3.0572,-3.034,-3.0339,-3.0338,0,0,-3.0596,-3.0579,-3.0624,-3.0614,-3.0596,-3.0564,-3.0575,-3.0544,-3.0529,-3.0569,-3.0507,-3.0526,-3.0551,-3.0544,-3.0543,-3.0671,-3.0624,-3.0676,-3.0762,-3.08,-3.0816,-3.0831,-3.0878,-3.0896,-3.0685,-3.0686,-3.0686,0,-3.0679,-3.071,-3.0654,-3.0686,-3.0687,-3.0611,-3.0658,-3.065,-3.0638,-3.0641,-3.0601,-3.0631,-3.0616,-3.0673,-3.0704,-3.0706,-3.0718,-3.068,-3.0818,-3.0832,-3.0845,-3.0889,-3.0907,-3.0692,-3.0692,-3.0691,-3.069,0,-3.0814,-3.0836,-3.0876,-3.0865,-3.087,-3.0909,-3.0861,-3.0873,-3.0836,-3.0809,-3.0851,-3.083,-3.0836,-3.0846,-3.081,-3.0898,-3.0877,-3.0829,-3.0759,-3.0872,-3.0913,-3.093,-3.0702,-3.0699,-3.0697,-3.0696,0,0,-3.1014,-3.0971,-3.0987,-3.0981,-3.0956,-3.0973,-3.1009,-3.1013,-3.1026,-3.102,-3.105,-3.1073,-3.1028,-3.1028,-3.099,-3.1023,-3.1128,-3.097,-3.0969,-3.1002,-3.1227,-3.1265,-3.1286,-3.1096,-3.1099,-3.1101,-3.1229,0,-3.1139,-3.1197,-3.1149,-3.1217,-3.1238,-3.1166,-3.1198,-3.1187,-3.1162,-3.1177,-3.115,-3.1168,-3.1107,-3.1106,-3.1136,-3.1109,-3.1173,-3.1099,-3.1126,-3.1127,-3.1134,-3.1307,-3.1347,-3.1469,-3.1244,-3.1247,-3.1249,0,-3.1292,-3.1293,-3.1363,-3.1334,-3.1341,-3.1371,-3.1371,-3.1386,-3.1372,-3.1352,-3.1352,-3.1306,-3.1341,-3.1271,-3.1319,-3.1271,-3.1278,-3.1267,-3.127,-3.1273,-3.1197,-3.1316,-3.1506,-3.1525,-3.1273,-3.1271,-3.1269,0,-3.1434,-3.1452,-3.1496,-3.1494,-3.146,-3.1483,-3.1471,-3.1453,-3.1459,-3.146,-3.1464,-3.1469,-3.1472,-3.1478,-3.1435,-3.1387,-3.149,-3.1416,-3.1476,-3.1477,-3.1502,-3.1502,-3.1698,-3.1504,-3.1504,-3.1503,-3.1503,0,-3.158,-3.1627,-3.156,-3.1588,-3.1638,-3.1582,-3.1634,-3.1613,-3.1599,-3.1622,-3.156,-3.1584,-3.1524,-3.1542,-3.1508,-3.1555,-3.1556,-3.1542,-3.1533,-3.1549,-3.1551,-3.1555,-3.1546,-3.1508,-3.1507,-3.1506,-3.1505,0,-3.1747,-3.1704,-3.1749,-3.1713,-3.1706,-3.1745,-3.1715,-3.174,-3.1711,-3.1742,-3.1746,-3.1701,-3.1719,-3.1676,-3.1688,-3.1665,-3.1732,-3.1709,-3.1737,-3.1731,-3.1794,-3.179,-3.2002,-3.2028,-3.1815,-3.1817,-3.1819,0,-3.1844,-3.1879,-3.1847,-3.1858,-3.1848,-3.1867,-3.1873,-3.1818,-3.1827,-3.1814,-3.1842,-3.1854,-3.1862,-3.1894,-3.1864,-3.1873,-3.185,-3.1924,-3.1851,-3.1867,-3.1854,-3.1854,-3.1858,-3.194,-3.1942,-3.1944,-3.1946,0,-3.2022,-3.1999,-3.2009,-3.2013,-3.2021,-3.2021,-3.2017,-3.203,-3.1972,-3.1985,-3.2003,-3.2008,-3.202,-3.2035,-3.2037,-3.2025,-3.1978,-3.1969,-3.1984,-3.2002,-3.2018,-3.2012,-3.1781,-3.1965,-3.1963,-3.1962,-3.1961,-3.196,-3.2159,-3.2186,-3.2168,-3.2182,-3.2173,-3.2171,-3.2193,-3.2167,-3.218,-3.2185,-3.2152,-3.2177,-3.2163,-3.2161,-3.2154,-3.2174,-3.2141,-3.2162,-3.2167,-3.2174,-3.2185,-3.2013,-3.2174,-3.2173,-3.2173,-3.2172,-3.2172,0,-3.2335,-3.232,-3.2333,-3.2329,-3.234,-3.2292,-3.2285,-3.2298,-3.2321,-3.2311,-3.232,-3.2341,-3.2354,-3.2324,-3.2334,-3.2355,-3.2334,-3.236,-3.2359,-3.2358,-3.2213,-3.2201,-3.2377,-3.2377,-3.2377,-3.2377,-3.2377,-3.2377,-3.2428,-3.2473,-3.2448,-3.2488,-3.2472,-3.2496,-3.2496,-3.2494,-3.2486,-3.2512,-3.2523,-3.2503,-3.2486,-3.2493,-3.2504,-3.2495,-3.2503,-3.2537,-3.2521,-3.2387,-3.2367,-3.2348,-3.2336,-3.2538,-3.2539,-3.2663,-3.2664,-3.2665]},{"header":{"parameterUnit":"m.s-1","parameterCategory":1,"la1":30.2991,"la2":30.254,"lo1":-89.0895,"lo2":-89.0444,"dy":0.0017,"dx":0.0017,"nx":28,"ny":28,"refTime":"2024-12-11T09:00:00:Z","depth":0,"parameterNumber":3,"parameterNumberName":"V-component_of_WINDS"},"data":[0,0,0,0,0,0,0,0,0,0,0,0,0,0,0,0,0,0,0,0,0,0,0,0,0,0,0,0,0,0,0,0,0,0,0,0,0,0,0,0,0,0,0,0,0,0,0,0,0,0,0,0,0,0,0,0,0,0,-2.6546,-2.6546,0,-2.6567,-2.6567,-2.6567,-2.6534,-2.6533,-2.6532,-2.6531,-2.6552,-2.6553,-2.6555,0,0,0,0,0,0,0,0,0,0,0,0,0,-2.6476,-2.6478,-2.6546,-2.6546,-2.6546,-2.6567,-2.6567,-2.6567,-2.6535,-2.6533,-2.6532,-2.6531,-2.6551,-2.6553,-2.6555,0,0,0,0,0,0,0,0,0,0,0,0,0,-2.6503,-2.6478,-2.6546,-2.6533,-2.6532,-2.6566,-2.6567,-2.6567,-2.6535,-2.6533,-2.6532,-2.653,-2.655,-2.6553,-2.6555,-2.6603,0,0,-2.6562,-2.6563,0,0,0,0,0,0,0,0,-2.6501,-2.6505,-2.6534,-2.6533,-2.6532,-2.6546,-2.655,-2.6579,-2.6535,-2.6534,-2.6531,-2.6529,-2.6551,-2.6553,-2.6561,-2.6604,-2.6605,-2.6563,-2.6564,-2.6565,-2.6566,0,0,0,0,0,0,0,-2.6499,-2.6504,-2.6554,-2.6535,-2.6534,-2.6525,-2.6527,-2.6555,-2.6551,-2.6534,-2.6531,-2.6534,-2.655,-2.6559,-2.6561,-2.6606,-2.6562,-2.6565,-2.6566,-2.6567,-2.669,-2.6692,0,0,0,0,0,0,-2.6499,-2.6503,-2.6553,-2.6554,-2.6512,-2.6528,-2.653,-2.6543,-2.6551,-2.6551,-2.6536,-2.6533,-2.6555,-2.6558,-2.6562,-2.662,-2.6565,-2.6567,-2.6569,-2.6688,-2.6691,-2.6693,0,0,0,0,0,0,-2.6498,-2.6504,-2.6552,-2.6528,-2.6534,-2.6531,-2.6546,-2.6545,-2.6553,-2.6553,-2.6552,-2.6545,-2.6554,-2.6558,-2.6593,-2.662,-2.6568,-2.657,-2.6686,-2.6689,-2.6692,-2.6735,0,0,0,0,0,0,-2.6496,-2.6504,-2.6523,-2.6529,-2.6535,-2.6584,-2.6548,-2.6546,-2.6558,-2.6554,-2.6561,-2.6561,-2.6553,-2.659,-2.6596,-2.6622,-2.6572,-2.6684,-2.6687,-2.6691,-2.6732,-2.6739,-2.6746,0,0,0,0,0,-2.6494,-2.6534,-2.6524,-2.653,-2.6558,-2.6586,-2.6589,-2.658,-2.656,-2.6578,-2.6578,-2.6561,-2.6616,-2.6594,-2.66,-2.6628,-2.6682,-2.6686,-2.669,-2.6728,-2.6738,-2.6746,0,0,0,0,0,0,-2.6531,-2.6534,-2.6523,-2.6567,-2.6576,-2.658,-2.6604,-2.659,-2.6606,-2.6602,-2.6589,-2.6591,-2.6629,-2.6631,-2.6607,-2.6675,-2.6645,-2.6651,-2.6672,-2.6681,-2.6688,-2.6687,-2.6574,0,0,0,0,0,-2.6544,-2.6566,-2.6568,-2.6606,-2.6611,-2.6607,-2.6618,-2.661,-2.662,-2.6624,-2.6626,-2.6635,-2.6655,-2.6668,-2.6685,-2.6731,-2.6733,-2.6753,-2.676,-2.6766,-2.6772,-2.6796,-2.6806,-2.6706,-2.6706,-2.6706,0,0,-2.6571,-2.6576,-2.6591,-2.6613,-2.662,-2.6643,-2.6611,-2.6636,-2.6654,-2.6627,-2.6661,-2.6663,-2.6673,-2.6714,-2.6732,-2.6717,-2.6799,-2.6771,-2.6776,-2.6778,-2.6802,-2.6811,-2.682,-2.6709,-2.6709,-2.6708,0,0,-2.6633,-2.6639,-2.6672,-2.6679,-2.6689,-2.6686,-2.6694,-2.67,-2.67,-2.6734,-2.6715,-2.6735,-2.6768,-2.6776,-2.6785,-2.6849,-2.6834,-2.6855,-2.6893,-2.6918,-2.6926,-2.6932,-2.6957,-2.6965,-2.686,-2.686,-2.6861,0,-2.6666,-2.6701,-2.669,-2.6718,-2.6728,-2.6705,-2.6738,-2.6746,-2.6761,-2.6769,-2.6752,-2.6794,-2.6799,-2.6842,-2.6858,-2.6865,-2.6873,-2.6855,-2.6925,-2.6932,-2.6938,-2.6961,-2.697,-2.6863,-2.6863,-2.6862,-2.6862,0,-2.6741,-2.6765,-2.679,-2.6807,-2.682,-2.685,-2.6843,-2.6858,-2.6848,-2.6847,-2.6881,-2.6886,-2.6905,-2.6914,-2.6905,-2.6955,-2.6946,-2.6927,-2.6898,-2.6951,-2.6972,-2.6981,-2.6867,-2.6866,-2.6865,-2.6864,0,0,-2.6828,-2.6838,-2.6847,-2.6855,-2.6864,-2.6883,-2.6911,-2.693,-2.6943,-2.6954,-2.6978,-2.7007,-2.699,-2.7,-2.6991,-2.7012,-2.7064,-2.6991,-2.6991,-2.7005,-2.7122,-2.7137,-2.7147,-2.7054,-2.7055,-2.7056,-2.7121,0,-2.6891,-2.6942,-2.6932,-2.6981,-2.7004,-2.6983,-2.7008,-2.7016,-2.7015,-2.7034,-2.7032,-2.7053,-2.7029,-2.7034,-2.7054,-2.7054,-2.7088,-2.7049,-2.7076,-2.7078,-2.7076,-2.7158,-2.7174,-2.7234,-2.7129,-2.7131,-2.7132,0,-2.6971,-2.6986,-2.7038,-2.7045,-2.7054,-2.7077,-2.7093,-2.7111,-2.712,-2.7118,-2.7128,-2.7115,-2.7144,-2.7113,-2.7152,-2.7126,-2.7136,-2.7138,-2.714,-2.7143,-2.7109,-2.7164,-2.7253,-2.7263,-2.7144,-2.7143,-2.7142,0,-2.7031,-2.7064,-2.7099,-2.7106,-2.7114,-2.7131,-2.7135,-2.7142,-2.7154,-2.7168,-2.7175,-2.7192,-2.7202,-2.7215,-2.7207,-2.7185,-2.7248,-2.7216,-2.7247,-2.7248,-2.7263,-2.7262,-2.7356,-2.7267,-2.7267,-2.7267,-2.7267,0,-2.7103,-2.7136,-2.7126,-2.7148,-2.7184,-2.7173,-2.7208,-2.721,-2.7216,-2.7238,-2.722,-2.724,-2.7228,-2.7247,-2.7241,-2.7275,-2.7279,-2.7278,-2.7276,-2.728,-2.7281,-2.7288,-2.7284,-2.7269,-2.7269,-2.7268,-2.7268,0,-2.7176,-2.7171,-2.7209,-2.7213,-2.7215,-2.7242,-2.7245,-2.7266,-2.7263,-2.729,-2.7296,-2.7292,-2.7314,-2.7307,-2.733,-2.7326,-2.7369,-2.7361,-2.7367,-2.7365,-2.7397,-2.7395,-2.75,-2.7514,-2.7415,-2.7416,-2.7417,0,-2.7223,-2.7248,-2.7256,-2.7269,-2.7275,-2.7296,-2.7309,-2.7298,-2.7311,-2.7323,-2.7342,-2.7362,-2.7378,-2.7414,-2.7413,-2.7431,-2.7424,-2.746,-2.7427,-2.7431,-2.7426,-2.7425,-2.7428,-2.7467,-2.7468,-2.7469,-2.747,0,-2.7308,-2.7304,-2.7323,-2.7341,-2.7356,-2.7369,-2.7381,-2.7392,-2.7382,-2.7398,-2.7421,-2.7433,-2.7457,-2.7478,-2.7494,-2.7497,-2.7482,-2.748,-2.7488,-2.7494,-2.7496,-2.7497,-2.7386,-2.7478,-2.7477,-2.7476,-2.7476,-2.7476,-2.737,-2.7392,-2.74,-2.7422,-2.7429,-2.7441,-2.746,-2.746,-2.7479,-2.7498,-2.749,-2.7516,-2.7524,-2.7544,-2.755,-2.757,-2.7556,-2.7568,-2.7572,-2.7575,-2.758,-2.7492,-2.7573,-2.7573,-2.7572,-2.7572,-2.7572,0,-2.7455,-2.7459,-2.7479,-2.7496,-2.7513,-2.7497,-2.7509,-2.7524,-2.7547,-2.7556,-2.7572,-2.7598,-2.7618,-2.7618,-2.7637,-2.7653,-2.7647,-2.7658,-2.7658,-2.7659,-2.759,-2.7582,-2.7663,-2.7663,-2.7663,-2.7663,-2.7663,-2.7663,-2.7501,-2.7536,-2.7534,-2.7573,-2.7577,-2.7603,-2.7611,-2.7621,-2.7628,-2.7659,-2.7675,-2.7675,-2.7681,-2.7699,-2.7717,-2.7716,-2.7724,-2.7739,-2.7736,-2.7673,-2.7664,-2.7655,-2.7647,-2.7741,-2.7741,-2.7803,-2.7804,-2.7804]}]]